• In Moldova, Republic
  • List of Countries
  • For 7 days
  • Water Temperature
  • Satellite Maps
  • Weather Map
  • Weather Widgets
  • user-avatar
    Login

    Hourly Weather Newcastle

    Today, 23 January, Monday

    Time Temperature Precipitation Wind Pressure Humidity
    00:00 +20°C° 0 mm 4 mps 760 mmHg 86%
    01:00 +20°C° 0 mm 4 mps 760 mmHg 89%
    02:00 +19°C° 0 mm 4 mps 760 mmHg 91%
    03:00 +19°C° 0 mm 4 mps 760 mmHg 92%
    04:00 +18°C° 0 mm 4 mps 759 mmHg 95%
    05:00 +19°C° 0 mm 4 mps 760 mmHg 89%
    06:00 +21°C° 0 mm 4 mps 760 mmHg 83%
    07:00 +22°C° 0 mm 4 mps 760 mmHg 77%
    08:00 +26°C° 0 mm 4 mps 760 mmHg 65%
    09:00 +30°C° 0 mm 4 mps 760 mmHg 53%
    10:00 +35°C° 0 mm 3 mps 759 mmHg 43%
    11:00 +37°C° 0 mm 3 mps 759 mmHg 39%
    12:00 +38°C° 0 mm 4 mps 758 mmHg 35%
    13:00 +41°C° 0 mm 5 mps 757 mmHg 32%
    14:00 +40°C° 0 mm 5 mps 757 mmHg 32%
    15:00 +40°C° 0 mm 6 mps 757 mmHg 33%
    16:00 +39°C° 0 mm 6 mps 756 mmHg 33%
    17:00 +36°C° 0 mm 6 mps 756 mmHg 39%
    18:00 +34°C° 0 mm 7 mps 757 mmHg 46%
    19:00 +30°C° 0 mm 7 mps 757 mmHg 52%
    20:00 +29°C° 0 mm 6 mps 757 mmHg 54%
    21:00 +28°C° 0 mm 6 mps 757 mmHg 57%
    22:00 +28°C° 0 mm 6 mps 757 mmHg 59%
    23:00 +27°C° 0 mm 5 mps 757 mmHg 61%

    Tomorrow, 24 January, Tuesday

    Time Temperature Precipitation Wind Pressure Humidity
    00:00 +26°C° 0 mm 5 mps 757 mmHg 63%
    01:00 +26°C° 0 mm 5 mps 757 mmHg 65%
    02:00 +26°C° 0 mm 4 mps 756 mmHg 62%
    03:00 +26°C° 0 mm 4 mps 756 mmHg 59%
    04:00 +27°C° 0 mm 4 mps 756 mmHg 56%
    05:00 +28°C° 0 mm 4 mps 756 mmHg 51%
    06:00 +29°C° 0 mm 4 mps 756 mmHg 47%
    07:00 +32°C° 0 mm 4 mps 756 mmHg 42%
    08:00 +34°C° 0 mm 4 mps 756 mmHg 38%
    09:00 +37°C° 0 mm 4 mps 756 mmHg 33%
    10:00 +40°C° 0 mm 4 mps 756 mmHg 29%
    11:00 +42°C° 0 mm 4 mps 756 mmHg 27%
    12:00 +43°C° 0 mm 4 mps 755 mmHg 25%
    13:00 +45°C° 0 mm 4 mps 755 mmHg 23%
    14:00 +44°C° 0.4 mm 4 mps 755 mmHg 27%
    15:00 +42°C° 0.4 mm 4 mps 755 mmHg 31%
    16:00 +41°C° 0.4 mm 4 mps 755 mmHg 35%
    17:00 +37°C° 1.9 mm 4 mps 756 mmHg 49%
    18:00 +33°C° 1.9 mm 4 mps 757 mmHg 63%
    19:00 +29°C° 1.9 mm 4 mps 757 mmHg 78%
    20:00 +28°C° 1.5 mm 5 mps 759 mmHg 84%
    21:00 +26°C° 1.5 mm 6 mps 760 mmHg 90%
    22:00 +24°C° 1.5 mm 7 mps 761 mmHg 96%
    23:00 +24°C° 0.9 mm 7 mps 761 mmHg 96%

    Day after tomorrow, 25 January, Wednesday

    Time Temperature Precipitation Wind Pressure Humidity
    00:00 +23°C° 0.9 mm 6 mps 761 mmHg 96%
    01:00 +23°C° 0.9 mm 6 mps 762 mmHg 96%
    02:00 +23°C° 0.1 mm 6 mps 762 mmHg 94%
    03:00 +22°C° 0.1 mm 5 mps 762 mmHg 92%
    04:00 +22°C° 0.1 mm 5 mps 762 mmHg 90%
    05:00 +22°C° 0.1 mm 4 mps 763 mmHg 88%
    06:00 +22°C° 0.1 mm 4 mps 763 mmHg 87%
    07:00 +22°C° 0.1 mm 3 mps 764 mmHg 85%
    08:00 +24°C° 0 mm 3 mps 764 mmHg 78%
    09:00 +26°C° 0 mm 3 mps 764 mmHg 71%
    10:00 +27°C° 0 mm 3 mps 763 mmHg 65%
    11:00 +27°C° 0 mm 3 mps 763 mmHg 63%
    12:00 +28°C° 0 mm 3 mps 763 mmHg 61%
    13:00 +28°C° 0 mm 3 mps 762 mmHg 59%
    14:00 +29°C° 0 mm 3 mps 762 mmHg 59%
    15:00 +29°C° 0 mm 3 mps 761 mmHg 58%
    16:00 +29°C° 0 mm 3 mps 761 mmHg 58%
    17:00 +28°C° 0 mm 3 mps 761 mmHg 64%
    18:00 +27°C° 0 mm 3 mps 761 mmHg 69%
    19:00 +26°C° 0 mm 2 mps 761 mmHg 75%
    20:00 +25°C° 0 mm 3 mps 761 mmHg 80%
    21:00 +24°C° 0 mm 3 mps 761 mmHg 86%
    22:00 +24°C° 0 mm 3 mps 761 mmHg 91%
    23:00 +24°C° 0 mm 2 mps 761 mmHg 92%

    26 January, Thursday

    Time Temperature Precipitation Wind Pressure Humidity
    00:00 +24°C° 0 mm 2 mps 761 mmHg 94%
    01:00 +24°C° 0 mm 1 mps 760 mmHg 95%
    02:00 +24°C° 0 mm 1 mps 760 mmHg 96%
    03:00 +24°C° 0 mm 1 mps 760 mmHg 97%
    04:00 +24°C° 0 mm 1 mps 759 mmHg 98%
    05:00 +25°C° 0 mm 1 mps 760 mmHg 95%
    06:00 +25°C° 0 mm 1 mps 760 mmHg 92%
    07:00 +26°C° 0 mm 1 mps 760 mmHg 89%
    08:00 +27°C° 0 mm 1 mps 760 mmHg 82%
    09:00 +29°C° 0 mm 1 mps 760 mmHg 76%
    10:00 +30°C° 0 mm 1 mps 760 mmHg 69%
    11:00 +31°C° 0 mm 2 mps 760 mmHg 67%
    12:00 +31°C° 0 mm 2 mps 759 mmHg 65%
    13:00 +31°C° 0 mm 2 mps 759 mmHg 64%
    14:00 +31°C° 0 mm 3 mps 759 mmHg 66%
    15:00 +31°C° 0 mm 3 mps 758 mmHg 67%
    16:00 +30°C° 0 mm 3 mps 758 mmHg 69%
    17:00 +29°C° 0 mm 3 mps 759 mmHg 75%
    18:00 +28°C° 0 mm 2 mps 759 mmHg 81%
    19:00 +27°C° 0 mm 2 mps 760 mmHg 87%
    20:00 +26°C° 0.1 mm 2 mps 760 mmHg 90%
    21:00 +26°C° 0.1 mm 2 mps 760 mmHg 94%
    22:00 +25°C° 0.1 mm 2 mps 761 mmHg 97%
    23:00 +25°C° 0.3 mm 2 mps 760 mmHg 98%

    27 January, Friday

    Time Temperature Precipitation Wind Pressure Humidity
    00:00 +24°C° 0.3 mm 1 mps 760 mmHg 98%
    01:00 +24°C° 0.3 mm 1 mps 760 mmHg 99%
    02:00 +24°C° 0 mm 1 mps 760 mmHg 98%
    03:00 +24°C° 0 mm 1 mps 760 mmHg 98%
    04:00 +24°C° 0 mm 1 mps 759 mmHg 98%
    05:00 +24°C° 0 mm 1 mps 760 mmHg 96%
    06:00 +25°C° 0 mm 1 mps 760 mmHg 94%
    07:00 +25°C° 0 mm 1 mps 761 mmHg 92%
    08:00 +27°C° 0 mm 1 mps 761 mmHg 84%
    09:00 +28°C° 0 mm 2 mps 760 mmHg 76%
    10:00 +29°C° 0 mm 2 mps 760 mmHg 68%
    11:00 +30°C° 0 mm 2 mps 760 mmHg 66%
    12:00 +30°C° 0 mm 3 mps 760 mmHg 64%
    13:00 +31°C° 0 mm 3 mps 759 mmHg 62%
    14:00 +31°C° 0 mm 3 mps 759 mmHg 60%
    15:00 +32°C° 0 mm 4 mps 758 mmHg 59%
    16:00 +33°C° 0 mm 4 mps 758 mmHg 58%
    17:00 +30°C° 0 mm 4 mps 758 mmHg 65%
    18:00 +29°C° 0 mm 4 mps 759 mmHg 72%
    19:00 +27°C° 0 mm 4 mps 759 mmHg 80%
    20:00 +26°C° 0 mm 4 mps 759 mmHg 84%
    21:00 +25°C° 0 mm 4 mps 759 mmHg 89%
    22:00 +23°C° 0 mm 4 mps 760 mmHg 94%
    23:00 +23°C° 0 mm 4 mps 759 mmHg 95%

    28 January, Saturday

    Time Temperature Precipitation Wind Pressure Humidity
    00:00 +22°C° 0 mm 4 mps 759 mmHg 95%
    01:00 +22°C° 0 mm 4 mps 758 mmHg 96%
    02:00 +21°C° 0 mm 4 mps 758 mmHg 97%
    03:00 +20°C° 0 mm 4 mps 758 mmHg 98%
    04:00 +20°C° 0 mm 3 mps 758 mmHg 98%
    05:00 +21°C° 0 mm 3 mps 758 mmHg 94%
    06:00 +24°C° 0 mm 3 mps 759 mmHg 90%
    07:00 +25°C° 0 mm 3 mps 759 mmHg 86%
    08:00 +29°C° 0 mm 3 mps 759 mmHg 72%
    09:00 +33°C° 0 mm 3 mps 759 mmHg 59%
    10:00 +36°C° 0 mm 2 mps 759 mmHg 46%
    11:00 +38°C° 0 mm 3 mps 758 mmHg 40%
    12:00 +39°C° 0 mm 3 mps 758 mmHg 34%
    13:00 +42°C° 0 mm 4 mps 757 mmHg 29%
    14:00 +41°C° 0 mm 4 mps 757 mmHg 33%
    15:00 +39°C° 0 mm 5 mps 757 mmHg 37%
    16:00 +37°C° 0 mm 5 mps 756 mmHg 41%
    17:00 +35°C° 0 mm 5 mps 757 mmHg 46%
    18:00 +34°C° 0 mm 5 mps 757 mmHg 51%
    19:00 +32°C° 0 mm 5 mps 757 mmHg 56%
    20:00 +30°C° 0 mm 5 mps 758 mmHg 60%
    21:00 +29°C° 0 mm 5 mps 758 mmHg 64%
    22:00 +29°C° 0 mm 4 mps 758 mmHg 68%
    23:00 +28°C° 0.1 mm 4 mps 758 mmHg 72%
    Show more